Location: Cambridge (historical)
(38.6883°N, 119.0140°W)
Time: 17:20:55
(UTC+00:00)

ADEOS Rocket - Pass Details

Date: 29 October 2020
Orbit: 859 x 1306 km, 98.7° (Epoch: 23 November)

Event Time Altitude Azimuth Distance (km) Brightness Sun altitude
Rises 12:42:50 0° 188° (S) 3,447 5.8 -19.5°
Reaches altitude 10° 12:45:24 10° 197° (SSW) 2,494 5.0 -19.0°
Maximum altitude 12:50:24 36° 263° (W) 1,335 3.2 -18.1°
Drops below altitude 10° 12:55:29 10° 329° (NNW) 2,540 4.9 -17.1°
Sets 12:58:08 0° 338° (NNW) 3,518 5.7 -16.6°
